Shelbyville, IN

1:44 AM EST on February 27, 2017 (GMT -0500)
Shelbyville Municipal

Weather History for KGEZ - December, 2014

Change the Weather History Date:

Wednesday, December 3, 2014

  Actual Average Record
Temperature  
Mean Temperature 33 °F 36 °F  
Max Temperature 42 °F 44 °F 71 °F (2012)
Min Temperature 24 °F 28 °F 18 °F (2006)
Degree Days  
Heating Degree Days 32 29  
Month to date heating degree days 91 86  
Since 1 July heating degree days 1275 1161  
Cooling Degree Days 0 0  
Month to date cooling degree days 0 0  
Year to date cooling degree days 1080 913  
Moisture  
Dew Point 29 °F    
Average Humidity 75    
Maximum Humidity 92    
Minimum Humidity 57    
Precipitation  
Precipitation T in 0.11 in 0.11 in (2005)
Month to date precipitation 0.02 0.32  
Year to date precipitation 36.98 40.61  
Sea Level Pressure  
Sea Level Pressure 30.24 in    
Wind  
Wind Speed 9 mph (WSW)    
Max Wind Speed 20 mph    
Max Gust Speed 22 mph    
Visibility 8 miles    
Events Snow    
T = Trace of Precipitation, MM = Missing Value Source: NWS Daily Summary

Daily Weather History Graph

Daily Weather History Graph

Search for Another Location

Airport or City:

Trip Planner

Search our weather history database for the weather conditions in past years. The results will help you decide how hot, cold, wet, or windy it might be!

Date:

Astronomy

Dec. 03, 2014 Rise Set
Actual Time 7:46 AM EST 5:19 PM EST
Civil Twilight 7:16 AM EST 5:49 PM EST
Nautical Twilight 6:43 AM EST 6:22 PM EST
Astronomical Twilight 6:10 AM EST 6:55 PM EST
Moon 3:38 PM EST (12/3) 4:34 AM EST (12/3)
Length of Visible Light 10h 32m
Length of Day
9h 32m
Waxing Gibbous, 91% of the Moon is Illuminated
Dec 3
Waxing Gibbous
Dec 6
Full
Dec 14
Last Quarter
Dec 21
New
Dec 28
First Quarter

Hourly Weather History & Observations

Time (EST) Temp. Windchill Dew Point Humidity Pressure Visibility Wind Dir Wind Speed Gust Speed Precip Events Conditions
12:35 AM 36.0 °F 28.0 °F 33.1 °F 89% 30.15 in 5.0 mi SW 11.5 mph - N/A   Overcast
12:53 AM 36.0 °F 27.1 °F 33.1 °F 89% 30.17 in 6.0 mi SSW 13.8 mph - N/A   Overcast
1:26 AM 35.1 °F 26.4 °F 32.0 °F 89% 30.14 in 7.0 mi SW 12.7 mph - N/A   Overcast
1:37 AM 35.1 °F 26.4 °F 32.0 °F 89% 30.14 in 9.0 mi SW 12.7 mph - N/A   Overcast
1:53 AM 35.1 °F 26.9 °F 30.9 °F 85% 30.17 in 10.0 mi SW 11.5 mph - N/A   Overcast
2:53 AM 35.1 °F 26.9 °F 30.0 °F 82% 30.17 in 7.0 mi WSW 11.5 mph - 0.00 in Snow Light Snow
3:07 AM 35.1 °F 28.6 °F 30.9 °F 85% 30.15 in 7.0 mi WSW 8.1 mph - 0.00 in Snow Light Snow
3:13 AM 35.1 °F 27.4 °F 30.9 °F 85% 30.15 in 7.0 mi WSW 10.4 mph - 0.00 in   Overcast
3:33 AM 34.0 °F 25.5 °F 30.9 °F 89% 30.15 in 6.0 mi SW 11.5 mph - 0.00 in Snow Light Snow
3:53 AM 34.0 °F 24.6 °F 30.9 °F 89% 30.17 in 5.0 mi SW 13.8 mph - 0.00 in Snow Light Snow
4:06 AM 34.0 °F 25.5 °F 30.9 °F 89% 30.15 in 4.0 mi SW 11.5 mph - 0.00 in Snow Light Snow
4:29 AM 34.0 °F 26.6 °F 30.9 °F 89% 30.16 in 3.0 mi West 9.2 mph - 0.00 in Snow Light Snow
4:37 AM 34.0 °F 26.6 °F 30.9 °F 89% 30.16 in 2.5 mi WSW 9.2 mph - 0.00 in Snow Light Snow
4:53 AM 34.0 °F 25.5 °F 30.9 °F 89% 30.18 in 3.0 mi WSW 11.5 mph - 0.00 in Snow Light Snow
5:24 AM 34.0 °F 25.0 °F 30.0 °F 85% 30.16 in 10.0 mi WSW 12.7 mph - 0.00 in   Overcast
5:53 AM 34.0 °F 25.5 °F 28.9 °F 82% 30.19 in 10.0 mi WSW 11.5 mph - 0.00 in   Overcast
6:53 AM 34.0 °F 26.0 °F 28.9 °F 82% 30.21 in 8.0 mi WSW 10.4 mph - N/A   Overcast
7:10 AM 34.0 °F 26.0 °F 28.9 °F 82% 30.20 in 5.0 mi West 10.4 mph - 0.00 in Snow Light Snow
7:53 AM 34.0 °F 25.5 °F 30.0 °F 85% 30.24 in 3.0 mi West 11.5 mph - 0.00 in Snow Light Snow
8:10 AM 34.0 °F 26.0 °F 28.9 °F 82% 30.23 in 10.0 mi WSW 10.4 mph - 0.00 in   Overcast
8:53 AM 34.0 °F 25.5 °F 28.9 °F 82% 30.27 in 10.0 mi WSW 11.5 mph - 0.00 in   Overcast
9:53 AM 35.1 °F 26.4 °F 30.0 °F 82% 30.30 in 10.0 mi WSW 12.7 mph - N/A   Overcast
10:53 AM 36.0 °F 27.5 °F 30.0 °F 79% 30.30 in 10.0 mi WSW 12.7 mph - N/A   Overcast
11:53 AM 37.9 °F 29.6 °F 30.0 °F 73% 30.30 in 10.0 mi WSW 13.8 mph - N/A   Mostly Cloudy
12:53 PM 39.9 °F 32.9 °F 30.0 °F 68% 30.29 in 10.0 mi WSW 11.5 mph - N/A   Mostly Cloudy
1:18 PM 41.0 °F 33.9 °F 30.0 °F 65% 30.27 in 10.0 mi WSW 12.7 mph - N/A   Scattered Clouds
1:53 PM 41.0 °F 35.2 °F 30.0 °F 65% 30.29 in 10.0 mi West 9.2 mph - N/A   Partly Cloudy
2:53 PM 42.1 °F 36.6 °F 28.0 °F 58% 30.30 in 10.0 mi West 9.2 mph - N/A   Partly Cloudy
3:53 PM 39.9 °F 33.9 °F 28.0 °F 63% 30.31 in 10.0 mi WSW 9.2 mph - N/A   Clear
4:53 PM 37.9 °F 32.7 °F 28.0 °F 68% 30.32 in 10.0 mi WSW 6.9 mph - N/A   Clear
5:53 PM 35.1 °F 30.1 °F 27.0 °F 72% 30.33 in 10.0 mi SW 5.8 mph - N/A   Clear
6:53 PM 36.0 °F 31.1 °F 27.0 °F 70% 30.34 in 10.0 mi SSW 5.8 mph - N/A   Clear
7:53 PM 34.0 °F - 26.1 °F 73% 30.35 in 10.0 mi Calm Calm - N/A   Clear
8:53 PM 32.0 °F 27.5 °F 26.1 °F 79% 30.36 in 10.0 mi SSW 4.6 mph - N/A   Clear
9:53 PM 27.0 °F - 24.1 °F 89% 30.38 in 10.0 mi Calm Calm - N/A   Clear
10:53 PM 26.1 °F - 23.0 °F 88% 30.39 in 6.0 mi Calm Calm - N/A   Clear
11:53 PM 26.1 °F 21.9 °F 21.9 °F 84% 30.40 in 5.0 mi ENE 3.5 mph - N/A   Clear